Flag for U.S.A. Weather past 2 weeks in Antioch, California, U.S.A.

Now
90 °F

Sunny.


Feels Like: 87 °F
Forecast: 63 / 101 °F
Wind: 16 mph from West

Location: Buchanan Field

Current Time: Jul 27, 2015 at 6:38:00 PM

Latest Report: Jul 27, 2015 at 5:53 PM


Visibility: 10 mi

Pressure: 29.81 "Hg

Humidity: 23%

Dew point: 47 °F

Location of AntiochLocation

Historic Weather in Antioch — Graph

°F

Antioch temperature yesterday

Maximum temperature yesterday: 85 °F (at 4:53 PM)
Minimum temperature yesterday: 61 °F (at 4:53 AM)
Average temperature yesterday: 71 °F

Past Weeks' High & Low Weather Summary

 TemperatureHumidityPressure
High95 °F (Jul 20, 1:53 PM)83% (Jul 14, 4:53 AM)30.06 "Hg (Jul 14, 4:53 AM)
Low60 °F (Jul 17, 5:53 AM)17% (Jul 24, 3:53 PM)29.70 "Hg (Jul 17, 5:53 PM)
Average72 °F56%29.88 "Hg
* Reported Jul 12 4:53 PM — Jul 27 4:53 PM, Antioch, Weather by CustomWeather, © 2015

Note: Actual official high and low records may vary slightly from our data, if they occured in-between our weather recording intervals... More about our weather records

Advertising

Antioch weather history for previous 24 hours

 ConditionsComfort  
Time TempWeatherWind HumidityBarometerVisibility
4:53 PM
Mon, Jul 27
94 °FSunny.14 mph19%29.82 "Hg10 mi
3:53 PM94 °FSunny.9 mph20%29.83 "Hg10 mi
1:53 PM91 °FSunny.N/A23%29.86 "Hg10 mi
12:53 PM89 °FSunny.8 mph24%29.88 "Hg10 mi
11:53 AM86 °FSunny.7 mph27%29.89 "Hg10 mi
10:53 AM83 °FSunny.6 mph31%29.90 "Hg10 mi
9:53 AM76 °FSunny.3 mph40%29.91 "Hg10 mi
8:53 AM70 °FSunny.3 mph51%29.91 "Hg10 mi
7:53 AM65 °FSunny.6 mph63%29.91 "Hg10 mi
6:53 AM61 °FClear.7 mph72%29.89 "Hg10 mi
5:53 AM61 °FClear.7 mph72%29.87 "Hg10 mi
4:53 AM62 °FClear.7 mph70%29.86 "Hg10 mi
3:53 AM63 °FClear.10 mph70%29.85 "Hg10 mi
2:53 AM63 °FClear.13 mph70%29.85 "Hg10 mi
1:53 AM64 °FClear.14 mph65%29.85 "Hg10 mi
12:53 AM65 °FClear.13 mph63%29.84 "Hg10 mi
11:53 PM
Sun, Jul 26
66 °FClear.16 mph61%29.84 "Hg10 mi
10:53 PM66 °FClear.14 mph61%29.85 "Hg10 mi
9:53 PM66 °FClear.15 mph61%29.84 "Hg10 mi
8:53 PM66 °FSunny.20 mph63%29.83 "Hg10 mi
7:53 PM70 °FSunny.21 mph55%29.83 "Hg10 mi
6:53 PM75 °FSunny.15 mph48%29.82 "Hg10 mi
Weather by CustomWeather, © 2015

See weather overviewHow to use our weather pages